KM4KMO-14 Weather Reports


time (UTC)temp
C
wind
direction
speed
KPH
gust
KPH
rain 1hr
cm
rain 24hr
cm
rain mn
cm
humidity
%
barometer
mb
20260504041221 12 209 0.0 0.0 0.00 0.00 0.00 72 1015.1
20260504035721 12 209 0.0 0.0 0.00 0.00 0.00 70 1015.0
20260504034221 12 209 0.0 0.0 0.00 0.00 0.00 68 1015.0
20260504032721 12 209 0.0 0.0 0.00 0.00 0.00 68 1014.9
20260504031221 13 207 0.0 1.6 0.00 0.00 0.00 67 1014.8
20260504025721 13 229 0.0 0.0 0.00 0.00 0.00 66 1014.7
20260504024221 13 244 0.0 0.0 0.00 0.00 0.00 67 1014.5
20260504022721 13 247 0.0 0.0 0.00 0.00 0.00 69 1014.4
20260504021221 14 248 0.0 0.0 0.00 0.00 0.00 69 1014.4
20260504015721 14 247 0.0 0.0 0.00 0.00 0.00 67 1014.2
20260504014221 15 247 0.0 0.0 0.00 0.00 0.00 66 1014.3
20260504012722 15 248 0.0 0.0 0.00 0.00 0.00 65 1014.1
20260504011221 15 247 0.0 0.0 0.00 0.00 0.00 61 1014.0
20260504005722 16 247 0.0 0.0 0.00 0.00 0.00 58 1013.9
20260504004222 16 248 0.0 0.0 0.00 0.00 0.00 58 1013.8
20260504002722 17 247 0.0 0.0 0.00 0.00 0.00 56 1013.8
20260503235722 18 248 0.0 0.0 0.00 0.00 0.00 54 1013.8
20260503234222 18 247 0.0 1.6 0.00 0.00 0.00 52 1013.8
20260503232722 19 245 0.0 3.2 0.00 0.00 0.00 51 1013.8
20260503231222 20 246 1.6 3.2 0.00 0.00 0.00 48 1013.9
20260503225722 21 283 1.6 3.2 0.00 0.00 0.00 45 1014.0
20260503224222 22 248 1.6 3.2 0.00 0.00 0.00 42 1014.0
20260503222722 22 248 1.6 4.8 0.00 0.00 0.00 43 1014.1
20260503221222 22 254 1.6 6.4 0.00 0.00 0.00 44 1014.2
20260503215722 22 258 1.6 8.0 0.00 0.00 0.00 44 1014.1
20260503214222 22 244 0.0 6.4 0.00 0.00 0.00 43 1014.3
20260503212722 22 249 1.6 6.4 0.00 0.00 0.00 45 1014.6
20260503205722 22 248 3.2 8.0 0.00 0.00 0.00 44 1014.8
20260503204222 22 228 1.6 6.4 0.00 0.00 0.00 45 1015.2
20260503202722 22 245 3.2 8.0 0.00 0.00 0.00 41 1015.4
20260503201222 22 248 1.6 8.0 0.00 0.00 0.00 43 1015.8
20260503195722 21 211 1.6 4.8 0.00 0.00 0.00 41 1015.9
20260503194223 21 250 1.6 8.0 0.00 0.00 0.00 41 1016.2
20260503192723 21 200 1.6 3.2 0.00 0.00 0.00 42 1016.5
20260503185723 19 146 1.6 6.4 0.00 0.00 0.00 49 1016.8
20260503184223 19 241 1.6 6.4 0.00 0.00 0.00 50 1017.1
20260503182723 19 242 0.0 3.2 0.00 0.00 0.00 50 1017.1
20260503181223 18 229 1.6 3.2 0.00 0.00 0.00 52 1017.4
20260503175723 18 241 1.6 6.4 0.00 0.00 0.00 50 1017.7
20260503174223 18 252 1.6 6.4 0.00 0.00 0.00 48 1018.0
20260503172723 17 72 1.6 3.2 0.00 0.00 0.00 50 1018.1
20260503171223 17 242 1.6 3.2 0.00 0.00 0.00 55 1018.4
20260503081226 7 108 0.0 0.0 0.00 0.00 0.00 86 1016.5
20260503072725 8 78 0.0 0.0 0.00 0.00 0.00 85 1016.3
20260503071226 8 78 0.0 0.0 0.00 0.00 0.00 85 1016.1
20260503054226 9 227 0.0 1.6 0.00 0.00 0.00 81 1015.8
20260503051226 9 227 0.0 0.0 0.00 0.00 0.00 80 1015.8